AirNav   Air Wisconsin pilot careers
 
 1643 users online  

KPHK Palm Beach County Glades Airport
Pahokee, Florida, USA

GOING TO PAHOKEE?


FAA INFORMATION EFFECTIVE 03 JANUARY 2019

Location

FAA Identifier: PHK
Lat/Long: 26-47-06.1000N / 080-41-36.1000W
26-47.101667N / 080-41.601667W
26.7850278 / -80.6933611
(estimated)
Elevation: 15.9 ft. / 4.8 m (surveyed)
Variation: 07W (2020)
From city: 3 miles SW of PAHOKEE, FL
Time zone: UTC -5 (UTC -4 during Daylight Saving Time)
Zip code: 33476

Airport Operations

Airport use: Open to the public
Activation date: 06/1949
Control tower: no
ARTCC: MIAMI CENTER
FSS: MIAMI FLIGHT SERVICE STATION
NOTAMs facility: MIA (NOTAM-D service available)
Attendance: 0800-1800
FOR SVC AFTER HRS CTC FBO AT 561-626-9799.
Wind indicator: lighted
Segmented circle: yes
Lights: ACTVT MIRL RY 18/36 - CTAF.
Beacon: white-green (lighted land airport)
Operates sunset to sunrise.

Airport Communications

CTAF/UNICOM: 122.8
PALM BEACH APPROACH: 128.3
PALM BEACH DEPARTURE: 128.3

Nearby radio navigation aids

VOR radial/distance  VOR name  Freq  Var
PHK at fieldPAHOKEE VOR/DME115.4000E
PBIr284/33.1PALM BEACH VORTAC115.7003W
LBVr093/37.5LA BELLE VORTAC110.4001E

 
NDB name  Hdg/Dist  Freq  Var  ID
UNITED254/20.640505WUTX ..- - -..-

Airport Services

Fuel available: 100LL JET-A
Parking: hangars and tiedowns
Bottled oxygen: NONE
Bulk oxygen: NONE

Runway Information

Runway 18/36

Dimensions: 4116 x 75 ft. / 1255 x 23 m
Surface: asphalt, in good condition
Weight bearing capacity: 
Single wheel: 20.0
Runway edge lights: medium intensity
RUNWAY 18  RUNWAY 36
Latitude: 26-47.439657N26-46.764527N
Longitude: 080-41.643560W080-41.558973W
Elevation: 15.3 ft.15.6 ft.
Traffic pattern: leftleft
Runway heading: 181 magnetic, 174 true001 magnetic, 354 true
Displaced threshold: 100 ft.52 ft.
Declared distances: TORA:4069 TODA:4069 ASDA:4119 LDA:4016TORA:4016 TODA:4016 ASDA:4170 LDA:4069
Markings: nonprecision, in good conditionnonprecision, in good condition
Visual slope indicator: 2-light PAPI on left (3.00 degrees glide path)2-light PAPI on left (3.00 degrees glide path)
Runway end identifier lights: yesyes
Touchdown point: yes, no lightsyes, no lights
Obstructions: 35 ft. tree, 1106 ft. from runway, 157 ft. right of centerline, 25:1 slope to clear
RY 18 APCH RATIO 34:1 AT DSPLCD THLD.
2 ft. fence, 213 ft. from runway, 250 ft. left of centerline, 6:1 slope to clear
RY 36 APCH RATIO 34:1 AT DSPLCD THLD DUE TO 25 FT PLINE 820 FT FM THE END 250 FT R OF RY CNTRLN.

Airport Ownership and Management from official FAA records

Ownership: Publicly-owned
Owner: PALM BEACH COUNTY
DEPARTMENT OF AIRPORTS, 846 PBIA
WEST PALM BEACH, FL 33406-1491
Phone 561-471-7412
CONTACT PERSON: ROBERT WEISMAN
Manager: BRUCE PELLY
846 PBIA
WEST PALM BEACH, FL 33406-1470
Phone (561) 471-7412
AIRPORT PHYSICAL ADDRESS: 3800 STATE ROAD 715, PAHOKEE, FL 33476

Airport Operational Statistics

Aircraft based on the field: 26
Single engine airplanes: 8
Multi engine airplanes: 1
Helicopters: 2
Ultralights: 15
    
Aircraft operations: avg 101/day *
79% transient general aviation
20% local general aviation
<1% air taxi
* for 12-month period ending 27 January 2017

Additional Remarks

BIRDS ON AND INVOF ARPT.
FBO (561) 924-5696.
ALL TWYS HAVE BEEN RENAMED.
AIRPORT SURFACE CONDITIONS NOT REPORTED FOR ALL RUNWAYS.

Instrument Procedures

NOTE: All procedures below are presented as PDF files. If you need a reader for these files, you should download the free Adobe Reader.

NOT FOR NAVIGATION. Please procure official charts for flight.
FAA instrument procedures published for use from 3 January 2019 at 0901Z to 31 January 2019 at 0900Z.

 
IAPs - Instrument Approach Procedures
RNAV (GPS) RWY 18   download (186KB)
RNAV (GPS) RWY 36   download (193KB)
NOTE: Special Take-Off Minimums/Departure Procedures apply   download (257KB)

Other nearby airports with instrument procedures:

2IS - Airglades Airport (19 nm W)
06FA - William P Gwinn Airport (21 nm E)
F45 - North Palm Beach County General Aviation Airport (25 nm E)
KOBE - Okeechobee County Airport (30 nm N)
KPBI - Palm Beach International Airport (33 nm E)
 
Loc | Ops | Rwys | IFR | FBO | Links
Com | Nav | Svcs | Stats | Notes


 
Area around KPHK (Palm Beach County Glades Airport)
 
Road maps at: MapQuest Bing Google
 
Aerial photo
WARNING: Photo may not be current or correct
Aerial photo of KPHK (Palm Beach County Glades Airport)
Photo taken 27-Aug-2008

Do you have a better or more recent aerial photo of Palm Beach County Glades Airport that you would like to share? If so, please send us your photo.

 
Sectional chart

 
Airport diagram
CAUTION: Diagram may not be current
Diagram of KPHK (Palm Beach County Glades Airport)
 
Airport distance calculator
Flying to Palm Beach County Glades Airport? Find the distance to fly.

From to KPHK

Sunrise and sunset
Times for 22-Jan-2019
 Local
(UTC-5)
 Zulu
(UTC)
Morning civil twilight06:4811:48
Sunrise07:1312:13
Sunset17:5622:56
Evening civil twilight18:2123:21

Current date and time
Zulu (UTC)  22-Jan-2019 20:06:42
Local (UTC-5)  22-Jan-2019 15:06:42
 
METAR
KOBE 
30nm N 
221955Z AUTO 11010G15KT 075V135 BKN050 23/09 A3033 RMK AO2 PWINO
KPBI 
32nm E 
221953Z 09016G24KT 10SM SCT048 23/12 A3034 RMK AO2 SLP272 T02330117 $
KLNA 
35nm E 
221955Z AUTO 07013G20KT 10SM SCT045 23/12 A3034 RMK AO2 T02280120
KSUA 
35nm NE 
221947Z 11015G24KT 7SM SCT020 23/12 A3036
KBCT 
40nm SE 
221947Z 07017G24KT 10SM BKN047 23/13 A3032
KIMM 
43nm SW 
221955Z AUTO 09018KT 10SM FEW041 BKN055 24/14 A3029 RMK A01
KFXE 
45nm SE 
221953Z 09018G25KT 10SM SCT040 BKN055 23/14 A3030 RMK AO2 SLP264 T02330139
KPMP 
45nm SE 
221953Z 09018G22KT 10SM FEW041 SCT060 23/13 A3031 RMK AO2 PK WND 07027/1900 SLP264 T02330133
KFPR 
46nm N 
221953Z 12018KT 10SM CLR 23/11 A3035 RMK AO2 SLP276 T02280106
TAF
KPBI 
32nm E 
221737Z 2218/2318 10020G30KT P6SM SCT040 FM230000 10020KT P6SM SCT035
KSUA 
35nm NE 
221125Z 2212/2312 09012G18KT P6SM SCT040 FM221500 10016G24KT P6SM SCT040 BKN060 FM230300 12011KT P6SM BKN060
NOTAMs
Click for the latest NOTAMs
NOTAMs are issued by the DoD/FAA and will open in a separate window not controlled by AirNav.

 

 
 

FBO, Fuel Providers, and Aircraft Ground Support

  
 Business Name 
 
 Contact 
 
 Services / Description 
 
Fuel Prices
 
Comments
  
Signature Flight Support UNICOM 122.80
561-924-5253
[web site]
[email]
3 miles southwest of the central business district of Pahokee, Florida. Palm Beach County Glades airport is right on the shore of Lake Okeechobee.
More info and photos of Signature Flight Support
 
Signature TailWins®   Signature Weekend Takeoff   NATA Safety 1st   Crew cars   Wireless Internet Access (WiFi)  
 
Shell
100LL Jet A
FS $5.91 $6.71 
GUARANTEED
 
   write
FS=Full service
Update Fuel Prices
 

Would you like to see your business listed on this page?

 If your business provides an interesting product or service to pilots, flight crews, aircraft, or users of the Palm Beach County Glades Airport, you should consider listing it here.  To start the listing process, click on the button below
 
Add a business
 

Other Pages about Palm Beach County Glades Airport

www.pbia.org/...
 
Update a link
 
Copyright © AirNav, LLC. All rights reserved. Privacy Policy  Contact